ETH3721 EHBK-OMSJ

Flight info

Callsign ETH3721
Flight time N/A
Altitude 23000
Route LNO DCT ARCKY L607 ROPUV/N0482F330 L607 UBIDU L984 RUDUS DCT BOMBI T104 WLD M867 RADIZ DCT LBL DCT IDASI DCT POD DCT PINDO UL607 ATV DCT MIL/N0487F350 DCT PAXIS Y707 OBRAN L321 REXUM M872 WEJ DCT HLF DCT MODIV DCT SIBLI DCT GESOR DCT JBL DCT OBTAR DCT TOMSO DCT EMOTA DCT GONVI
Aircraft MD11/H-SDE1E2E3FGHIJ2J3J4J5M1RWXY/LB1D1

Departure

Time 2026-05-08 11:45
Airport Maastricht Aachen Airport (EHBK)

Arrival

Time N/A
Airport Sharjah International Airport (OMSJ)
Time Latitude Longitude Altitude Speed Heading
2026-05-08 11:14 50.91403 5.77803 391 ft 0 kts 122°
2026-05-08 11:32 50.91408 5.77789 391 ft 4 kts 124°
2026-05-08 11:33 50.91424 5.77755 391 ft 4 kts 129°
2026-05-08 11:33 50.91440 5.77722 391 ft 4 kts 115°
2026-05-08 11:33 50.91446 5.77692 391 ft 4 kts 86°
2026-05-08 11:33 50.91441 5.77655 391 ft 4 kts 52°
2026-05-08 11:34 50.91423 5.77630 391 ft 4 kts 28°
2026-05-08 11:34 50.91406 5.77616 391 ft 0 kts 32°
2026-05-08 11:38 50.91408 5.77618 391 ft 2 kts 32°
2026-05-08 11:38 50.91438 5.77647 391 ft 6 kts 32°
2026-05-08 11:39 50.91474 5.77684 391 ft 6 kts 33°
2026-05-08 11:39 50.91532 5.77734 391 ft 12 kts 17°
2026-05-08 11:39 50.91590 5.77677 391 ft 12 kts 306°
2026-05-08 11:39 50.91648 5.77537 389 ft 10 kts 288°
2026-05-08 11:40 50.91628 5.77478 389 ft 8 kts 224°
2026-05-08 11:40 50.91556 5.77396 390 ft 18 kts 211°
2026-05-08 11:40 50.91422 5.77260 391 ft 28 kts 213°
2026-05-08 11:40 50.91240 5.77072 391 ft 34 kts 213°
2026-05-08 11:41 50.91028 5.76856 389 ft 39 kts 212°
2026-05-08 11:41 50.90796 5.76623 392 ft 38 kts 212°
2026-05-08 11:41 50.90581 5.76411 393 ft 35 kts 212°
2026-05-08 11:41 50.90385 5.76214 391 ft 32 kts 213°
2026-05-08 11:42 50.90206 5.76030 391 ft 29 kts 213°
2026-05-08 11:42 50.90090 5.75901 392 ft 11 kts 227°
2026-05-08 11:42 50.90066 5.75828 393 ft 2 kts 251°
2026-05-08 11:42 50.90061 5.75816 393 ft 3 kts 235°
2026-05-08 11:43 50.90033 5.75797 393 ft 5 kts 179°
2026-05-08 11:43 50.90010 5.75823 393 ft 2 kts 111°
2026-05-08 11:43 50.90015 5.75838 393 ft 2 kts 61°
2026-05-08 11:43 50.90027 5.75850 393 ft 0 kts 30°
2026-05-08 11:44 50.90029 5.75851 393 ft 3 kts 30°
2026-05-08 11:44 50.90245 5.76067 391 ft 89 kts 33°
2026-05-08 11:44 50.91062 5.76892 407 ft 179 kts 32°
2026-05-08 11:45 50.92107 5.77933 1551 ft 168 kts 33°
2026-05-08 11:45 50.93047 5.79077 2662 ft 182 kts 49°
2026-05-08 11:45 50.93671 5.80923 3232 ft 197 kts 69°
2026-05-08 11:45 50.93960 5.83071 4046 ft 203 kts 89°
2026-05-08 11:46 50.93636 5.85385 4436 ft 238 kts 116°
2026-05-08 11:46 50.92955 5.86835 4597 ft 260 kts 136°
2026-05-08 11:46 50.91346 5.88442 4996 ft 284 kts 156°
2026-05-08 11:46 50.89516 5.89612 6321 ft 284 kts 159°
2026-05-08 11:47 50.87660 5.90744 7587 ft 289 kts 160°
2026-05-08 11:47 50.85760 5.91919 8699 ft 297 kts 159°
2026-05-08 11:47 50.83821 5.93144 9822 ft 304 kts 159°
2026-05-08 11:47 50.81787 5.94440 10351 ft 332 kts 160°
2026-05-08 11:48 50.79458 5.95318 10821 ft 352 kts 179°
2026-05-08 11:48 50.77051 5.94694 11856 ft 355 kts 202°
2026-05-08 11:48 50.74897 5.92764 12864 ft 360 kts 217°
2026-05-08 11:48 50.72953 5.90235 13883 ft 365 kts 222°
2026-05-08 11:49 50.71053 5.87540 14771 ft 369 kts 222°
2026-05-08 11:49 50.69128 5.84826 15669 ft 374 kts 221°
2026-05-08 11:49 50.67153 5.82119 16543 ft 378 kts 220°
2026-05-08 11:49 50.65131 5.79448 17383 ft 382 kts 218°
2026-05-08 11:50 50.62908 5.77123 18209 ft 386 kts 207°
2026-05-08 11:50 50.60367 5.75712 18945 ft 391 kts 191°
2026-05-08 11:50 50.57647 5.75558 19642 ft 396 kts 174°
2026-05-08 11:50 50.54979 5.76739 20310 ft 403 kts 156°
2026-05-08 11:51 50.52599 5.79117 20939 ft 410 kts 142°
2026-05-08 11:51 50.50469 5.82145 21597 ft 416 kts 137°
2026-05-08 11:51 50.48427 5.85389 22295 ft 420 kts 136°
2026-05-08 11:51 50.46377 5.88685 22984 ft 424 kts 136°
2026-05-08 11:52 50.44279 5.91987 23702 ft 429 kts 137°
2026-05-08 11:52 50.42138 5.95275 24314 ft 433 kts 138°
2026-05-08 11:52 50.39955 5.98562 24968 ft 437 kts 139°
2026-05-08 11:52 50.37744 6.01851 25606 ft 440 kts 139°
2026-05-08 11:53 50.35503 6.05161 26263 ft 445 kts 139°
2026-05-08 11:53 50.33244 6.08499 26856 ft 449 kts 138°
2026-05-08 11:53 50.31128 6.12126 27482 ft 455 kts 129°
2026-05-08 11:53 50.29503 6.16416 28106 ft 463 kts 115°
2026-05-08 11:54 50.28509 6.21241 28703 ft 471 kts 104°
2026-05-08 11:54 50.27979 6.26321 29280 ft 476 kts 98°
2026-05-08 11:54 50.27616 6.31425 29860 ft 481 kts 98°
2026-05-08 11:54 50.27247 6.36642 30371 ft 485 kts 98°
2026-05-08 11:55 50.26819 6.41893 30809 ft 489 kts 99°
2026-05-08 11:55 50.26330 6.47152 31293 ft 490 kts 101°
2026-05-08 11:55 50.25795 6.52414 31790 ft 491 kts 101°
2026-05-08 11:55 50.25236 6.57667 32168 ft 489 kts 102°
2026-05-08 11:56 50.24666 6.62903 32559 ft 489 kts 102°
2026-05-08 11:56 50.24092 6.68131 32962 ft 489 kts 102°
2026-05-08 11:56 50.23516 6.73365 33072 ft 489 kts 102°
2026-05-08 11:57 50.22369 6.83904 33099 ft 494 kts 101°
2026-05-08 11:57 50.21616 6.94571 33099 ft 495 kts 97°
2026-05-08 11:58 50.21098 7.05304 33102 ft 496 kts 96°
2026-05-08 11:58 50.20579 7.15978 33102 ft 495 kts 96°
2026-05-08 11:59 50.19645 7.32028 33102 ft 494 kts 102°
2026-05-08 11:59 50.17887 7.42335 33099 ft 491 kts 110°
2026-05-08 12:00 50.15661 7.52315 33107 ft 490 kts 111°
2026-05-08 12:00 50.13443 7.62357 33113 ft 490 kts 111°
2026-05-08 12:01 50.11284 7.72444 33117 ft 490 kts 110°
2026-05-08 12:01 50.09142 7.82526 33111 ft 491 kts 110°
2026-05-08 12:02 50.07061 7.92664 33115 ft 492 kts 107°
2026-05-08 12:02 50.05414 8.03014 33112 ft 493 kts 104°
2026-05-08 12:03 50.04617 8.13614 33111 ft 496 kts 92°
2026-05-08 12:03 50.04831 8.24358 33099 ft 497 kts 88°
2026-05-08 12:04 50.05134 8.35122 33109 ft 498 kts 89°
2026-05-08 12:04 50.05329 8.45904 33103 ft 498 kts 90°
2026-05-08 12:05 50.05465 8.56686 33103 ft 498 kts 90°
2026-05-08 12:05 50.05317 8.67446 33102 ft 497 kts 98°
2026-05-08 12:06 50.03701 8.77805 33103 ft 492 kts 114°
2026-05-08 12:06 50.00326 8.86954 33110 ft 486 kts 130°
2026-05-08 12:07 49.95678 8.94515 33112 ft 483 kts 140°
2026-05-08 12:07 49.90650 9.01420 33115 ft 483 kts 141°
2026-05-08 12:08 49.85624 9.08333 33114 ft 483 kts 140°
2026-05-08 12:08 49.80637 9.15318 33111 ft 483 kts 140°
2026-05-08 12:09 49.75668 9.22311 33111 ft 483 kts 140°
2026-05-08 12:09 49.70697 9.29289 33117 ft 483 kts 140°
2026-05-08 12:10 49.65717 9.36253 33110 ft 483 kts 140°
2026-05-08 12:10 49.60792 9.43293 33117 ft 484 kts 137°
2026-05-08 12:11 49.56280 9.50916 33104 ft 485 kts 133°
2026-05-08 12:11 49.51886 9.58785 33118 ft 484 kts 133°
2026-05-08 12:12 49.47476 9.66619 33123 ft 484 kts 133°
2026-05-08 12:12 49.43037 9.74407 33124 ft 484 kts 133°
2026-05-08 12:13 49.38581 9.82172 33132 ft 484 kts 134°
2026-05-08 12:13 49.34126 9.89853 33140 ft 485 kts 134°
2026-05-08 12:14 49.29641 9.97567 33125 ft 484 kts 134°
2026-05-08 12:14 49.25163 10.05266 33115 ft 484 kts 134°
2026-05-08 12:15 49.20682 10.12951 33112 ft 484 kts 134°
2026-05-08 12:15 49.16192 10.20613 33126 ft 484 kts 134°
2026-05-08 12:16 49.11637 10.28179 33115 ft 484 kts 135°
2026-05-08 12:16 49.07001 10.35634 33137 ft 484 kts 136°
2026-05-08 12:17 49.02358 10.43064 33128 ft 484 kts 136°
2026-05-08 12:17 48.97703 10.50490 33142 ft 484 kts 136°
2026-05-08 12:18 48.93047 10.57896 33135 ft 484 kts 136°
2026-05-08 12:18 48.88385 10.65304 33137 ft 486 kts 136°
2026-05-08 12:19 48.83710 10.72720 33128 ft 486 kts 136°
2026-05-08 12:19 48.79029 10.80105 33111 ft 486 kts 137°
2026-05-08 12:20 48.74354 10.87435 33108 ft 487 kts 137°
2026-05-08 12:20 48.69640 10.94811 33096 ft 487 kts 138°
2026-05-08 12:21 48.64910 11.02191 33102 ft 489 kts 138°
2026-05-08 12:21 48.60176 11.09566 33100 ft 489 kts 138°
2026-05-08 12:22 48.55500 11.17033 33101 ft 490 kts 136°
2026-05-08 12:22 48.51009 11.24800 33092 ft 491 kts 135°
2026-05-08 12:23 48.46559 11.32620 33082 ft 491 kts 136°
2026-05-08 12:23 48.42093 11.40404 33092 ft 491 kts 136°
2026-05-08 12:24 48.37613 11.48158 33096 ft 491 kts 136°
2026-05-08 12:24 48.33125 11.55897 33099 ft 491 kts 136°
2026-05-08 12:25 48.28636 11.63615 33100 ft 491 kts 136°
2026-05-08 12:25 48.24135 11.71322 33099 ft 491 kts 137°
2026-05-08 12:26 48.19633 11.79015 33097 ft 490 kts 137°
2026-05-08 12:26 48.14865 11.86249 33091 ft 486 kts 143°
2026-05-08 12:27 48.09878 11.93051 33072 ft 485 kts 144°
2026-05-08 12:27 48.04874 11.99828 33058 ft 485 kts 144°
2026-05-08 12:28 47.99891 12.06640 33070 ft 485 kts 144°
2026-05-08 12:28 47.94944 12.13419 33072 ft 485 kts 144°
2026-05-08 12:29 47.89886 12.20019 33056 ft 482 kts 146°
2026-05-08 12:29 47.84752 12.26443 33062 ft 482 kts 147°
2026-05-08 12:30 47.79645 12.32808 33063 ft 482 kts 147°
2026-05-08 12:30 47.74510 12.39223 33052 ft 482 kts 147°
2026-05-08 12:31 47.69384 12.45599 33045 ft 480 kts 147°
2026-05-08 12:31 47.64249 12.51944 33057 ft 481 kts 147°
2026-05-08 12:32 47.59134 12.58318 33050 ft 482 kts 145°
2026-05-08 12:32 47.54205 12.65100 33040 ft 486 kts 143°
2026-05-08 12:33 47.49342 12.72057 33044 ft 485 kts 142°
2026-05-08 12:33 47.44497 12.78959 33037 ft 483 kts 143°
2026-05-08 12:34 47.39634 12.85820 33044 ft 483 kts 143°
2026-05-08 12:34 47.35588 12.91503 33045 ft 483 kts 143°
2026-05-08 12:35 47.30717 12.98326 33031 ft 484 kts 143°
2026-05-08 12:35 47.25837 13.05146 33029 ft 483 kts 142°
2026-05-08 12:36 47.20962 13.11944 33041 ft 482 kts 142°
2026-05-08 12:36 47.16095 13.18713 33030 ft 482 kts 142°
2026-05-08 12:37 47.11224 13.25466 33041 ft 482 kts 142°
2026-05-08 12:37 47.06341 13.32218 33033 ft 482 kts 142°
2026-05-08 12:38 47.01449 13.38965 33024 ft 483 kts 142°
2026-05-08 12:38 46.96546 13.45677 33033 ft 482 kts 143°
2026-05-08 12:39 46.91640 13.52356 33043 ft 481 kts 143°
2026-05-08 12:39 46.86746 13.59035 33015 ft 481 kts 142°
2026-05-08 12:40 46.81896 13.65655 33043 ft 481 kts 142°
2026-05-08 12:40 46.77005 13.72315 33039 ft 480 kts 142°
2026-05-08 12:41 46.72116 13.78951 33048 ft 480 kts 142°
2026-05-08 12:41 46.67222 13.85579 33053 ft 480 kts 142°
2026-05-08 12:42 46.62324 13.92197 33049 ft 481 kts 142°
2026-05-08 12:42 46.57416 13.98809 33053 ft 481 kts 142°
2026-05-08 12:43 46.52504 14.05410 33056 ft 481 kts 142°
2026-05-08 12:43 46.47616 14.11963 33051 ft 480 kts 142°
2026-05-08 12:44 46.42717 14.18512 33073 ft 479 kts 143°
2026-05-08 12:44 46.37790 14.25071 33067 ft 482 kts 143°
2026-05-08 12:45 46.32825 14.31616 33073 ft 483 kts 143°
2026-05-08 12:45 46.27865 14.38167 33075 ft 483 kts 143°
2026-05-08 12:46 46.22910 14.44718 33074 ft 482 kts 142°
2026-05-08 12:46 46.18033 14.51295 33061 ft 484 kts 139°
2026-05-08 12:47 46.13420 14.58420 33067 ft 487 kts 136°
2026-05-08 12:47 46.08909 14.65710 33060 ft 487 kts 136°
2026-05-08 12:48 46.04382 14.72970 33063 ft 487 kts 137°
2026-05-08 12:48 45.99832 14.80188 33031 ft 487 kts 137°
2026-05-08 12:49 45.95274 14.87384 33060 ft 487 kts 137°
2026-05-08 12:49 45.90713 14.94566 33042 ft 486 kts 137°
2026-05-08 12:50 45.86150 15.01733 33044 ft 486 kts 137°
2026-05-08 12:50 45.81587 15.08883 33054 ft 486 kts 137°
2026-05-08 12:51 45.74726 15.19598 33058 ft 486 kts 137°
2026-05-08 12:52 45.70145 15.26730 33051 ft 486 kts 137°
2026-05-08 12:52 45.63268 15.37398 33053 ft 486 kts 137°
2026-05-08 12:53 45.58658 15.44468 33051 ft 486 kts 137°
2026-05-08 12:53 45.54047 15.51537 33050 ft 486 kts 137°
2026-05-08 12:54 45.49447 15.58605 33037 ft 486 kts 137°
2026-05-08 12:54 45.44854 15.65655 33047 ft 485 kts 137°
2026-05-08 12:55 45.40289 15.72643 33046 ft 485 kts 137°
2026-05-08 12:55 45.35694 15.79658 33050 ft 484 kts 137°
2026-05-08 12:56 45.31099 15.86656 33048 ft 484 kts 137°
2026-05-08 12:56 45.26498 15.93644 33047 ft 484 kts 137°
2026-05-08 12:57 45.21894 16.00619 33036 ft 483 kts 137°
2026-05-08 12:57 45.17299 16.07562 33045 ft 483 kts 137°
2026-05-08 12:58 45.12704 16.14488 33044 ft 482 kts 137°
2026-05-08 12:58 45.08131 16.21364 33047 ft 482 kts 137°
2026-05-08 12:59 45.03516 16.28249 33031 ft 482 kts 137°
2026-05-08 12:59 44.98882 16.35125 33046 ft 484 kts 137°
2026-05-08 13:00 44.94244 16.42028 33049 ft 484 kts 137°
2026-05-08 13:00 44.89610 16.48926 33051 ft 484 kts 137°
2026-05-08 13:01 44.84973 16.55813 33045 ft 484 kts 137°
2026-05-08 13:01 44.80323 16.62699 33047 ft 486 kts 137°
2026-05-08 13:02 44.75691 16.69542 33045 ft 486 kts 137°
2026-05-08 13:02 44.71030 16.76411 33041 ft 484 kts 137°
2026-05-08 13:03 44.66395 16.83227 33044 ft 482 kts 137°
2026-05-08 13:03 44.61766 16.90014 33041 ft 480 kts 137°
2026-05-08 13:04 44.57145 16.96771 33040 ft 480 kts 137°
2026-05-08 13:04 44.52509 17.03511 33038 ft 479 kts 139°
2026-05-08 13:05 44.47482 17.09568 33037 ft 476 kts 146°
2026-05-08 13:05 44.42219 17.15171 33038 ft 476 kts 146°
2026-05-08 13:06 44.36939 17.20784 33037 ft 477 kts 146°
2026-05-08 13:06 44.31684 17.26442 33031 ft 477 kts 146°
2026-05-08 13:07 44.26436 17.32112 33038 ft 477 kts 145°
2026-05-08 13:07 44.21184 17.37774 33029 ft 477 kts 145°
2026-05-08 13:08 44.15940 17.43414 33036 ft 476 kts 145°
2026-05-08 13:08 44.10697 17.49037 33040 ft 476 kts 145°
2026-05-08 13:09 44.05456 17.54645 33032 ft 475 kts 145°
2026-05-08 13:09 44.00210 17.60244 33030 ft 475 kts 145°
2026-05-08 13:10 43.94971 17.65825 33031 ft 474 kts 145°
2026-05-08 13:10 43.89733 17.71391 33031 ft 474 kts 145°
2026-05-08 13:11 43.84488 17.76940 33033 ft 474 kts 145°
2026-05-08 13:11 43.79232 17.82459 33034 ft 474 kts 145°
2026-05-08 13:12 43.74008 17.87954 33026 ft 475 kts 145°
2026-05-08 13:12 43.68741 17.93497 33031 ft 476 kts 145°
2026-05-08 13:13 43.63475 17.99032 33036 ft 476 kts 145°
2026-05-08 13:13 43.58228 18.04532 33018 ft 476 kts 145°
2026-05-08 13:14 43.52952 18.10051 33030 ft 476 kts 145°
2026-05-08 13:14 43.47677 18.15555 33018 ft 476 kts 145°
2026-05-08 13:15 43.42399 18.21051 33008 ft 475 kts 145°
2026-05-08 13:15 43.37121 18.26534 33023 ft 476 kts 145°
2026-05-08 13:16 43.31839 18.32010 33024 ft 476 kts 145°
2026-05-08 13:16 43.26551 18.37478 33016 ft 476 kts 145°
2026-05-08 13:17 43.21261 18.42936 33013 ft 476 kts 145°
2026-05-08 13:17 43.15966 18.48361 33016 ft 475 kts 146°